Tracking 28790 objects as of 18-Apr-2024
HD Live streaming from Space Station
objects crossing your sky now

STARLINK-3992

Track STARLINK-3992 now!
10-day predictions
STARLINK-3992 is classified as:


NORAD ID: 52627
Int'l Code: 2022-052AF
Perigee: 545.7 km
Apogee: 548.1 km
Inclination: 53.2 °
Period: 95.4 minutes
Semi major axis: 6917 km
RCS: Unknown
Launch date: May 14, 2022
Source: United States (US)
Launch site: AIR FORCE EASTERN TEST RANGE (AFETR)
Your satellite tracking list
Your tracking list is empty




NASA's NSSDC Master Catalog

Two Line Element Set (TLE):
1 52627U 22052AF  24109.03037777 -.00001849  00000-0 -98129-4 0  9990
2 52627  53.2164 129.6139 0001685 113.5116 246.6054 15.08832557107104
Source of the keplerian elements: AFSPC